| time (UTC) | temp F | wind direction | speed MPH | gust MPH | rain 1hr in | rain 24hr in | rain mn in | humidity % | barometer mb |
| 20260831231558 | 82 | 30 | 0.0 | 0.0 | 0.00 | 0.05 | 0.05 | 88 | 1013.4 |
| 20260831230058 | 82 | 30 | 0.0 | 0.0 | 0.01 | 0.06 | 0.05 | 85 | 1013.1 |
| 20260831224557 | 82 | 30 | 0.0 | 0.0 | 0.01 | 0.06 | 0.05 | 87 | 1012.6 |
| 20260831223059 | 83 | 30 | 0.0 | 2.0 | 0.01 | 0.06 | 0.05 | 87 | 1012.6 |
| 20260831221555 | 85 | 31 | 0.0 | 0.0 | 0.01 | 0.06 | 0.05 | 80 | 1012.6 |
| 20260831220052 | 85 | 31 | 1.0 | 3.0 | 0.00 | 0.06 | 0.04 | 75 | 1012.6 |
| 20260831214554 | 86 | 126 | 0.0 | 2.0 | 0.00 | 0.06 | 0.04 | 77 | 1012.2 |
| 20260831213058 | 86 | 121 | 0.0 | 2.0 | 0.00 | 0.06 | 0.04 | 78 | 1012.3 |
| 20260831211552 | 88 | 131 | 0.0 | 4.0 | 0.00 | 0.06 | 0.04 | 75 | 1012.3 |
| 20260831210051 | 89 | 82 | 0.0 | 2.0 | 0.00 | 0.06 | 0.04 | 72 | 1012.4 |
| 20260831204549 | 89 | 81 | 1.0 | 5.0 | 0.00 | 0.06 | 0.04 | 69 | 1012.7 |
| 20260831203047 | 89 | 287 | 0.0 | 3.0 | 0.00 | 0.06 | 0.04 | 73 | 1012.8 |
| 20260831201547 | 89 | 286 | 1.0 | 5.0 | 0.00 | 0.06 | 0.04 | 71 | 1013.0 |
| 20260831200047 | 88 | 338 | 2.0 | 3.0 | 0.00 | 0.06 | 0.04 | 69 | 1013.0 |
| 20260831194615 | 88 | 40 | 0.0 | 3.0 | 0.00 | 0.06 | 0.04 | 71 | 1012.8 |
| 20260831193045 | 89 | 331 | 0.0 | 3.0 | 0.00 | 0.06 | 0.04 | 67 | 1012.7 |
| 20260831191544 | 89 | 32 | 1.0 | 4.0 | 0.00 | 0.06 | 0.04 | 69 | 1013.1 |
| 20260831190054 | 89 | 318 | 1.0 | 4.0 | 0.00 | 0.06 | 0.04 | 68 | 1013.1 |
| 20260831184539 | 88 | 321 | 2.0 | 8.0 | 0.00 | 0.06 | 0.04 | 71 | 1013.0 |
| 20260831183035 | 87 | 35 | 2.0 | 8.0 | 0.00 | 0.06 | 0.04 | 70 | 1013.0 |
| 20260831181543 | 86 | 159 | 2.0 | 9.0 | 0.00 | 0.06 | 0.04 | 71 | 1013.1 |
| 20260831180031 | 85 | 130 | 2.0 | 7.0 | 0.00 | 0.06 | 0.04 | 72 | 1013.1 |
| 20260831174529 | 85 | 88 | 0.0 | 10.0 | 0.00 | 0.06 | 0.04 | 75 | 1013.6 |
| 20260831173024 | 83 | 159 | 1.0 | 9.0 | 0.00 | 0.06 | 0.04 | 75 | 1013.7 |
| 20260831171521 | 82 | 186 | 4.0 | 10.0 | 0.00 | 0.06 | 0.04 | 76 | 1013.7 |
| 20260831170017 | 80 | 150 | 3.0 | 10.0 | 0.00 | 0.06 | 0.04 | 78 | 1014.0 |
| 20260831164514 | 79 | 117 | 1.0 | 11.0 | 0.00 | 0.06 | 0.04 | 80 | 1014.4 |
| 20260831163011 | 78 | 163 | 3.0 | 9.0 | 0.00 | 0.06 | 0.04 | 82 | 1014.4 |
| 20260831161506 | 76 | 173 | 2.0 | 6.0 | 0.00 | 0.06 | 0.04 | 84 | 1014.4 |
| 20260831160003 | 75 | 142 | 2.0 | 8.0 | 0.00 | 0.06 | 0.04 | 86 | 1014.4 |
| 20260831154501 | 74 | 119 | 3.0 | 10.0 | 0.00 | 0.06 | 0.04 | 88 | 1014.5 |
| 20260831153101 | 73 | 150 | 2.0 | 8.0 | 0.00 | 0.06 | 0.04 | 88 | 1014.6 |
| 20260831151559 | 74 | 161 | 1.0 | 7.0 | 0.00 | 0.06 | 0.04 | 86 | 1014.8 |
| 20260831150059 | 74 | 128 | 0.0 | 6.0 | 0.00 | 0.06 | 0.04 | 87 | 1015.0 |
| 20260831144558 | 73 | 124 | 2.0 | 9.0 | 0.00 | 0.06 | 0.04 | 87 | 1014.7 |
| 20260831143112 | 72 | 133 | 1.0 | 7.0 | 0.00 | 0.06 | 0.04 | 90 | 1014.9 |
| 20260831141612 | 71 | 174 | 2.0 | 5.0 | 0.01 | 0.06 | 0.04 | 92 | 1014.7 |
| 20260831140055 | 70 | 138 | 0.0 | 4.0 | 0.01 | 0.08 | 0.04 | 94 | 1014.7 |
| 20260831134557 | 70 | 136 | 1.0 | 3.0 | 0.02 | 0.08 | 0.04 | 94 | 1014.9 |
| 20260831133047 | 69 | 136 | 1.0 | 2.0 | 0.03 | 0.08 | 0.04 | 94 | 1014.9 |
| 20260831131547 | 69 | 137 | 1.0 | 6.0 | 0.02 | 0.07 | 0.03 | 93 | 1014.6 |
| 20260831130053 | 70 | 144 | 0.0 | 3.0 | 0.02 | 0.12 | 0.03 | 93 | 1014.8 |
| 20260831124541 | 70 | 144 | 0.0 | 0.0 | 0.01 | 0.11 | 0.02 | 92 | 1014.9 |
| 20260831123037 | 70 | 144 | 0.0 | 0.0 | 0.00 | 0.10 | 0.01 | 91 | 1014.7 |
| 20260831121536 | 70 | 144 | 0.0 | 1.0 | 0.00 | 0.10 | 0.01 | 91 | 1014.4 |
| 20260831120032 | 70 | 144 | 0.0 | 3.0 | 0.00 | 0.12 | 0.01 | 92 | 1013.7 |
| 20260831114535 | 69 | 161 | 1.0 | 5.0 | 0.01 | 0.12 | 0.01 | 92 | 1013.7 |
| 20260831113025 | 69 | 149 | 0.0 | 3.0 | 0.01 | 0.12 | 0.01 | 92 | 1013.6 |
| 20260831111523 | 70 | 148 | 0.0 | 1.0 | 0.01 | 0.12 | 0.01 | 91 | 1013.7 |
| 20260831110021 | 71 | 149 | 0.0 | 2.0 | 0.01 | 0.12 | 0.01 | 89 | 1013.7 |
| 20260831104518 | 71 | 151 | 0.0 | 2.0 | 0.00 | 0.11 | 0.00 | 87 | 1013.9 |
| 20260831103017 | 71 | 154 | 0.0 | 3.0 | 0.00 | 0.11 | 0.00 | 87 | 1013.9 |
| 20260831101516 | 72 | 152 | 0.0 | 1.0 | 0.00 | 0.11 | 0.00 | 87 | 1013.9 |
| 20260831100016 | 72 | 152 | 0.0 | 2.0 | 0.00 | 0.11 | 0.00 | 86 | 1013.6 |
| 20260831094514 | 72 | 173 | 0.0 | 0.0 | 0.00 | 0.11 | 0.00 | 87 | 1013.6 |
| 20260831093015 | 72 | 132 | 0.0 | 4.0 | 0.00 | 0.11 | 0.00 | 87 | 1013.7 |
| 20260831091511 | 72 | 154 | 0.0 | 2.0 | 0.00 | 0.11 | 0.00 | 87 | 1013.8 |
| 20260831090009 | 72 | 155 | 0.0 | 1.0 | 0.00 | 0.11 | 0.00 | 87 | 1013.8 |
| 20260831084508 | 73 | 153 | 0.0 | 3.0 | 0.00 | 0.11 | 0.00 | 86 | 1013.8 |
| 20260831083009 | 73 | 146 | 0.0 | 2.0 | 0.00 | 0.11 | 0.00 | 86 | 1013.9 |
| 20260831081506 | 73 | 175 | 0.0 | 3.0 | 0.00 | 0.11 | 0.00 | 86 | 1013.7 |
| 20260831080004 | 73 | 192 | 0.0 | 3.0 | 0.00 | 0.11 | 0.00 | 86 | 1013.8 |
| 20260831074503 | 73 | 156 | 0.0 | 0.0 | 0.00 | 0.11 | 0.00 | 86 | 1013.9 |
| 20260831073007 | 73 | 155 | 0.0 | 1.0 | 0.00 | 0.11 | 0.00 | 86 | 1014.0 |
| 20260831071502 | 73 | 155 | 0.0 | 2.0 | 0.00 | 0.11 | 0.00 | 86 | 1014.1 |
| 20260831070101 | 73 | 131 | 0.0 | 3.0 | 0.00 | 0.11 | 0.00 | 87 | 1013.9 |
| 20260831064559 | 74 | 148 | 0.0 | 3.0 | 0.00 | 0.11 | 0.00 | 87 | 1014.2 |
| 20260831063058 | 74 | 71 | 0.0 | 2.0 | 0.00 | 0.11 | 0.00 | 87 | 1014.1 |
| 20260831061601 | 74 | 161 | 0.0 | 3.0 | 0.00 | 0.11 | 0.00 | 88 | 1013.9 |
| 20260831060105 | 74 | 165 | 0.0 | 1.0 | 0.00 | 0.11 | 0.00 | 88 | 1014.0 |
| 20260831054555 | 74 | 167 | 0.0 | 5.0 | 0.00 | 0.11 | 0.00 | 88 | 1014.0 |
| 20260831053054 | 74 | 200 | 0.0 | 4.0 | 0.00 | 0.11 | 0.00 | 90 | 1014.0 |
| 20260831051604 | 74 | 118 | 1.0 | 5.0 | 0.00 | 0.11 | 0.00 | 90 | 1014.1 |
| 20260831050050 | 74 | 138 | 0.0 | 3.0 | 0.00 | 0.11 | 0.11 | 91 | 1014.2 |
| 20260831044550 | 74 | 176 | 0.0 | 3.0 | 0.00 | 0.11 | 0.11 | 92 | 1014.3 |
| 20260831043050 | 74 | 150 | 0.0 | 3.0 | 0.00 | 0.11 | 0.11 | 93 | 1014.4 |
| 20260831041548 | 74 | 148 | 0.0 | 2.0 | 0.00 | 0.11 | 0.11 | 94 | 1014.5 |
| 20260831040048 | 74 | 160 | 0.0 | 3.0 | 0.00 | 0.11 | 0.11 | 95 | 1014.6 |
| 20260831034547 | 74 | 161 | 0.0 | 5.0 | 0.00 | 0.11 | 0.11 | 96 | 1014.7 |
| 20260831033047 | 73 | 220 | 0.0 | 2.0 | 0.00 | 0.11 | 0.11 | 97 | 1014.8 |
| 20260831031547 | 73 | 347 | 0.0 | 4.0 | 0.00 | 0.11 | 0.11 | 97 | 1015.4 |
| 20260831024610 | 73 | 172 | 0.0 | 0.0 | 0.00 | 0.11 | 0.11 | 97 | 1015.0 |
| 20260831023045 | 73 | 143 | 0.0 | 0.0 | 0.00 | 0.11 | 0.11 | 97 | 1015.1 |
| 20260831021544 | 73 | 143 | 0.0 | 0.0 | 0.00 | 0.11 | 0.11 | 97 | 1015.1 |
| 20260831020043 | 74 | 143 | 0.0 | 0.0 | 0.00 | 0.11 | 0.11 | 96 | 1015.2 |
| 20260831014543 | 74 | 143 | 0.0 | 0.0 | 0.00 | 0.11 | 0.11 | 95 | 1015.3 |
| 20260831013054 | 74 | 143 | 0.0 | 0.0 | 0.00 | 0.11 | 0.11 | 95 | 1015.2 |
| 20260831011542 | 74 | 143 | 0.0 | 0.0 | 0.00 | 0.11 | 0.11 | 94 | 1014.9 |
| 20260831010042 | 74 | 143 | 0.0 | 0.0 | 0.00 | 0.11 | 0.11 | 94 | 1015.1 |
| 20260831004641 | 74 | 144 | 0.0 | 0.0 | 0.00 | 0.11 | 0.11 | 93 | 1014.8 |
| 20260831003040 | 74 | 144 | 0.0 | 4.0 | 0.00 | 0.11 | 0.11 | 94 | 1014.5 |
| 20260831001540 | 74 | 163 | 1.0 | 5.0 | 0.00 | 0.11 | 0.11 | 94 | 1014.4 |
| 20260831000039 | 74 | 128 | 1.0 | 3.0 | 0.00 | 0.11 | 0.11 | 95 | 1014.8 |
| 20260830234539 | 74 | 123 | 0.0 | 3.0 | 0.01 | 0.11 | 0.11 | 95 | 1015.1 |
| 20260830233038 | 74 | 123 | 0.0 | 0.0 | 0.01 | 0.11 | 0.11 | 95 | 1015.2 |